Tracking 19817 objects as of 18-Aug-2019
HD Live streaming from Space Station
objects crossing your sky now

SL-16 DEB

Track SL-16 DEB now!
10-day predictions


NORAD ID: 42239
Int'l Code: 1993-016CT
Perigee: 768.3 km
Apogee: 963.9 km
Inclination: 71.1 °
Period: 102.1 minutes
Semi major axis: 7237 km
RCS: Unknown
Launch date: March 26, 1993
Source: Commonwealth of Independent States (former USSR) (CIS)
Launch site: PLESETSK MISSILE AND SPACE COMPLEX (PKMTR)

Note: This is SATELLITE DEBRIS
aabbcc
Your satellite tracking list
Your tracking list is empty




NASA's NSSDC Master Catalog

Two Line Element Set (TLE):
1 42239U 93016CT  19229.00661955  .00000501  00000-0  28404-3 0  9991
2 42239  71.1386  78.1422 0135114 162.8273 197.7488 14.10128399579896
Source of the keplerian elements: AFSPC